Вернуться в каталог

STARLINK-37003

АктивенСвязьVLEO
NORAD 68170·PAYLOAD·🇺🇸 United States

Запущен Mar 14, 2026 с Vandenberg Space Force Base

Loading…

Ближайшие Пролёты (ближайшие 24 часа)

TLE

СвежийSource: CelesTrak SupGP

Эпоха: Sep 15, 2026, 02:59 UTC

1 68170C 26050D   26258.12479167  .00010872  00000+0  32122-3 0  2583
2 68170  53.1572 102.5806 0001194  79.6448  29.1083 15.34384170    12

Отслеживайте STARLINK-37003 в реальном времени с AllMySat

Download on the App Store